TimeEST,TemperatureF,Dew PointF,Humidity,Sea Level PressureIn,VisibilityMPH,Wind Direction,Wind SpeedMPH,Gust SpeedMPH,PrecipitationIn,Events,Conditions,WindDirDegrees,DateUTC
12:53 AM,39.9,32.0,73,30.02,10.0,NNW,12.7,-,N/A,,Overcast,340,2013-02-15 05:53:00
1:53 AM,39.0,30.9,73,30.01,10.0,Calm,Calm,-,N/A,,Mostly Cloudy,0,2013-02-15 06:53:00
2:53 AM,36.0,30.9,82,30.02,10.0,Calm,Calm,-,N/A,,Overcast,0,2013-02-15 07:53:00
3:53 AM,35.1,30.9,85,30.02,10.0,Calm,Calm,-,N/A,,Overcast,0,2013-02-15 08:53:00
4:53 AM,36.0,32.0,86,30.02,10.0,Calm,Calm,-,N/A,,Overcast,0,2013-02-15 09:53:00
5:53 AM,36.0,32.0,86,30.03,10.0,Calm,Calm,-,N/A,,Overcast,0,2013-02-15 10:53:00
7:53 AM,36.0,32.0,86,30.07,9.0,Calm,Calm,-,N/A,,Overcast,0,2013-02-15 12:53:00
8:53 AM,37.9,33.1,83,30.08,10.0,Calm,Calm,-,N/A,,Overcast,0,2013-02-15 13:53:00
9:53 AM,41.0,33.1,73,30.09,5.0,NW,3.5,-,N/A,,Haze,310,2013-02-15 14:53:00
10:05 AM,41.0,32.0,70,30.08,2.5,WNW,5.8,-,N/A,,Haze,300,2013-02-15 15:05:00
10:15 AM,41.0,33.8,76,30.08,5.0,WNW,8.1,-,N/A,,Haze,290,2013-02-15 15:15:00
10:53 AM,39.9,28.0,63,30.11,10.0,WNW,8.1,-,N/A,,Overcast,290,2013-02-15 15:53:00
11:53 AM,37.9,30.9,76,30.11,10.0,WNW,9.2,-,0.00,Rain,Light Rain,290,2013-02-15 16:53:00
12:01 PM,37.4,32.0,81,30.10,10.0,WNW,6.9,-,0.00,Rain,Light Rain,290,2013-02-15 17:01:00
12:23 PM,37.4,33.8,87,30.10,10.0,WNW,5.8,-,0.00,,Overcast,290,2013-02-15 17:23:00
12:53 PM,37.9,32.0,79,30.10,8.0,West,6.9,-,0.00,,Overcast,270,2013-02-15 17:53:00
1:53 PM,37.0,32.0,82,30.10,9.0,WNW,4.6,-,N/A,,Overcast,290,2013-02-15 18:53:00
2:31 PM,39.2,33.8,81,30.07,10.0,West,8.1,-,0.01,,Overcast,280,2013-02-15 19:31:00
2:53 PM,41.0,32.0,70,30.08,10.0,WSW,9.2,-,0.01,,Overcast,250,2013-02-15 19:53:00
3:21 PM,35.6,32.0,87,30.08,6.0,NW,12.7,-,0.00,Snow,Light Snow,310,2013-02-15 20:21:00
3:27 PM,33.8,32.0,93,30.08,1.8,NW,9.2,18.4,0.00,Snow,Light Snow,310,2013-02-15 20:27:00
3:39 PM,35.6,33.8,93,30.07,3.0,West,4.6,-,0.00,Snow,Light Snow,270,2013-02-15 20:39:00
3:41 PM,37.4,33.8,87,30.07,6.0,West,4.6,-,0.00,Snow,Light Snow,280,2013-02-15 20:41:00
3:50 PM,35.6,32.0,87,30.07,10.0,WNW,4.6,-,0.00,,Mostly Cloudy,300,2013-02-15 20:50:00
3:53 PM,37.0,32.0,82,30.09,10.0,NW,5.8,-,0.00,,Mostly Cloudy,310,2013-02-15 20:53:00
4:53 PM,41.0,27.0,57,30.09,10.0,NW,12.7,18.4,N/A,,Scattered Clouds,320,2013-02-15 21:53:00
5:53 PM,39.0,23.0,53,30.10,10.0,WNW,11.5,17.3,N/A,,Scattered Clouds,300,2013-02-15 22:53:00
6:53 PM,36.0,21.0,55,30.13,10.0,WNW,5.8,-,N/A,,Clear,300,2013-02-15 23:53:00
7:53 PM,34.0,19.0,54,30.15,10.0,WNW,5.8,-,N/A,,Clear,300,2013-02-16 00:53:00
8:53 PM,30.9,24.1,76,30.16,10.0,NNW,8.1,-,N/A,,Clear,330,2013-02-16 01:53:00
9:53 PM,28.9,23.0,78,30.17,10.0,NNW,3.5,-,N/A,,Clear,330,2013-02-16 02:53:00
10:53 PM,28.0,23.0,81,30.17,10.0,Calm,Calm,-,N/A,,Clear,0,2013-02-16 03:53:00
11:53 PM,25.0,21.9,88,30.17,10.0,Calm,Calm,-,N/A,,Clear,0,2013-02-16 04:53:00